Вернуться в каталог

DELTA 4H DEB

АктивенUNKNOWN
NORAD 32573·DEBRIS·🇺🇸 United States

Запущен Nov 11, 2007 с Cape Canaveral Space Force Station

Loading…

Ближайшие Пролёты (ближайшие 24 часа)

TLE

СвежийSource: Space-Track

Эпоха: Sep 14, 2026, 00:51 UTC

1 32573U 07054AE  26257.03601572  .00006922  00000-0  98765-2 0  9998
2 32573  27.9266 164.3811 2030955 184.9745 172.7163 10.46465278279165

Отслеживайте DELTA 4H DEB в реальном времени с AllMySat

Download on the App Store